{"data":{"norad_id":55614,"intl_designator":"2023-020AX","name":"STARLINK-5714","alt_names":[],"object_type":"PAYLOAD","status":"ACTIVE","operator":null,"country":"US","launch_date":"2023-02-12","launch_site_code":"AFETR","launch_vehicle":null,"mission":null,"orbit_class":"UNKNOWN","rcs_meters":null,"size_class":null,"mass_kg":null,"dimensions":null,"purposes":["comms"],"wikipedia_slug":null,"has_3d_model":false,"image_url":null,"decayed_at":null,"tle_current":{"epoch":"2026-09-20T15:11:21.132672Z","epoch_age_seconds":88924,"freshness":"FRESH","line1":"1 55614U 23020AX  26263.63288348 -.00000390  00000+0 -46291-5 0  9999","line2":"2 55614  43.0032 318.5203 0001499 269.1831  90.8849 15.27574156199022","mean_motion":15.27574156,"eccentricity":0.0001499,"inclination_deg":43.0032,"raan_deg":318.5203,"arg_perigee_deg":269.1831,"mean_anomaly_deg":90.8849,"bstar":-4.6291e-6,"rev_number":19902,"period_min":94.267109347456,"perigee_km":482.0381007149,"apogee_km":484.09508955272,"semimajor_km":6861.2035951338,"source":"CELESTRAK","updated_at":"2026-09-21T09:00:33.275191Z"}}}